Fremont, MI

6:50 AM EST on November 25, 2017 (GMT -0500)
Fremont

Weather History for KFFX - December, 2012

Change the Weather History Date:

Wednesday, December 26, 2012

  Actual Average (KMKG) Record (KMKG)
Temperature  
Mean Temperature 24 °F -  
Max Temperature 28 °F 28 °F 58 °F (1936)
Min Temperature 21 °F 18 °F -4 °F (1951)
Degree Days  
Heating Degree Days 40    
Moisture  
Dew Point 17 °F    
Average Humidity 71    
Maximum Humidity 77    
Minimum Humidity 65    
Precipitation  
Precipitation 0.00 in - - ()
Sea Level Pressure  
Sea Level Pressure 30.11 in    
Wind  
Wind Speed 10 mph (North)    
Max Wind Speed 18 mph    
Max Gust Speed 25 mph    
Visibility 10 miles    
Events      
Averages and records for this station are not official NWS values.
T = Trace of Precipitation, MM = Missing Value Source: NWS Daily Summary

Daily Weather History Graph

Daily Weather History Graph

Search for Another Location

Airport or City:

Trip Planner

Search our weather history database for the weather conditions in past years. The results will help you decide how hot, cold, wet, or windy it might be!

Date:

Astronomy

Dec. 26, 2012 Rise Set
Actual Time 8:15 AM EST 5:14 PM EST
Civil Twilight 7:43 AM EST 5:46 PM EST
Nautical Twilight 7:06 AM EST 6:22 PM EST
Astronomical Twilight 6:32 AM EST 6:57 PM EST
Moon 4:07 PM EST (12/26) 6:37 AM EST (12/26)
Length of Visible Light 10h 03m
Length of Day
8h 58m
Waxing Gibbous, 97% of the Moon is Illuminated
Dec 26
Waxing Gibbous
Dec 28
Full
Jan 4
Last Quarter
Jan 11
New
Jan 18
First Quarter

Hourly Weather History & Observations

Time (EST) Temp. Windchill Dew Point Humidity Pressure Visibility Wind Dir Wind Speed Gust Speed Precip Events Conditions
12:14 AM 22.8 °F 15.5 °F 15.6 °F 74% 30.29 in 10.0 mi NNE 5.8 mph - N/A   Clear
12:34 AM 22.8 °F 14.5 °F 15.1 °F 72% 30.28 in 10.0 mi North 6.9 mph - N/A   Clear
12:54 AM 22.8 °F 14.5 °F 15.4 °F 73% 30.28 in 10.0 mi NNE 6.9 mph - N/A   Clear
1:14 AM 23.0 °F 13.9 °F 15.4 °F 73% 30.28 in 10.0 mi NNE 8.1 mph - N/A   Clear
1:34 AM 22.8 °F 14.5 °F 14.9 °F 72% 30.28 in 10.0 mi NNE 6.9 mph - N/A   Clear
2:14 AM 23.0 °F 13.9 °F 14.9 °F 71% 30.27 in 10.0 mi NNE 8.1 mph - N/A   Mostly Cloudy
2:34 AM 23.0 °F 13.9 °F 15.1 °F 72% 30.27 in 10.0 mi NNE 8.1 mph - N/A   Overcast
2:55 AM 23.4 °F 13.5 °F 15.4 °F 72% 30.26 in 10.0 mi NNE 9.2 mph - N/A   Overcast
3:14 AM 23.4 °F 12.8 °F 15.4 °F 72% 30.25 in 10.0 mi NNE 10.4 mph - N/A   Overcast
3:34 AM 23.4 °F 14.3 °F 15.4 °F 72% 30.25 in 10.0 mi North 8.1 mph - N/A   Overcast
4:14 AM 23.5 °F 15.4 °F 16.0 °F 73% 30.22 in 10.0 mi NNE 6.9 mph - N/A   Overcast
4:35 AM 23.9 °F 15.8 °F 15.8 °F 71% 30.20 in 10.0 mi North 6.9 mph - N/A   Overcast
4:54 AM 23.9 °F 14.2 °F 15.8 °F 71% 30.18 in 10.0 mi North 9.2 mph - N/A   Overcast
5:14 AM 23.9 °F 15.8 °F 16.3 °F 73% 30.18 in 10.0 mi North 6.9 mph - N/A   Overcast
5:34 AM 25.0 °F 16.3 °F 16.7 °F 71% 30.19 in 10.0 mi NNE 8.1 mph - N/A   Overcast
5:54 AM 25.7 °F 15.1 °F 16.9 °F 69% 30.19 in 10.0 mi NNE 11.5 mph - N/A   Overcast
6:14 AM 25.7 °F 15.7 °F 16.7 °F 69% 30.18 in 10.0 mi NNE 10.4 mph - N/A   Overcast
6:34 AM 25.5 °F 16.9 °F 16.9 °F 70% 30.18 in 10.0 mi North 8.1 mph - N/A   Overcast
6:55 AM 25.5 °F 14.3 °F 17.2 °F 71% 30.18 in 10.0 mi NNE 12.7 mph 17.3 mph N/A   Overcast
7:14 AM 25.7 °F 14.6 °F 18.0 °F 73% 30.18 in 10.0 mi NNE 12.7 mph - N/A   Overcast
7:34 AM 25.5 °F 14.9 °F 18.1 °F 74% 30.17 in 10.0 mi NNE 11.5 mph - N/A   Overcast
7:54 AM 25.3 °F 14.7 °F 18.1 °F 74% 30.15 in 10.0 mi NNE 11.5 mph - N/A   Overcast
8:14 AM 25.0 °F 14.8 °F 18.1 °F 75% 30.14 in 10.0 mi North 10.4 mph 19.6 mph N/A   Mostly Cloudy
8:35 AM 25.3 °F 14.7 °F 18.3 °F 75% 30.14 in 10.0 mi North 11.5 mph - N/A   Mostly Cloudy
8:54 AM 25.3 °F 13.6 °F 18.3 °F 75% 30.12 in 10.0 mi North 13.8 mph 18.4 mph N/A   Overcast
9:14 AM 25.5 °F 15.5 °F 18.5 °F 75% 30.12 in 10.0 mi North 10.4 mph 16.1 mph N/A   Overcast
9:34 AM 25.7 °F 14.0 °F 18.5 °F 74% 30.12 in 10.0 mi North 13.8 mph 20.7 mph N/A   Overcast
9:54 AM 25.7 °F 15.1 °F 18.7 °F 75% 30.12 in 10.0 mi North 11.5 mph 18.4 mph N/A   Overcast
10:14 AM 25.7 °F 14.6 °F 19.0 °F 76% 30.12 in 10.0 mi North 12.7 mph 18.4 mph N/A   Overcast
10:34 AM 26.1 °F 15.6 °F 19.4 °F 76% 30.12 in 10.0 mi North 11.5 mph 17.3 mph N/A   Overcast
10:54 AM 26.4 °F 16.0 °F 19.9 °F 77% 30.10 in 10.0 mi North 11.5 mph 19.6 mph N/A   Overcast
11:14 AM 26.6 °F 16.8 °F 19.9 °F 76% 30.10 in 10.0 mi North 10.4 mph 17.3 mph N/A   Overcast
11:34 AM 27.1 °F 15.9 °F 19.9 °F 74% 30.09 in 10.0 mi North 13.8 mph 20.7 mph N/A   Overcast
11:54 AM 27.5 °F 16.3 °F 19.9 °F 73% 30.07 in 10.0 mi NNE 13.8 mph 18.4 mph N/A   Overcast
12:15 PM 27.9 °F 17.8 °F 19.4 °F 71% 30.05 in 10.0 mi NNE 11.5 mph 17.3 mph N/A   Overcast
12:34 PM 28.0 °F 15.7 °F 19.4 °F 70% 30.05 in 10.0 mi North 17.3 mph 24.2 mph N/A   Overcast
12:54 PM 28.2 °F 17.7 °F 19.0 °F 68% 30.05 in 10.0 mi NNE 12.7 mph 21.9 mph N/A   Overcast
1:14 PM 28.4 °F 19.1 °F 18.5 °F 66% 30.04 in 10.0 mi North 10.4 mph 21.9 mph N/A   Overcast
1:34 PM 28.4 °F 17.0 °F 18.0 °F 65% 30.04 in 10.0 mi North 15.0 mph 24.2 mph N/A   Overcast
1:54 PM 28.4 °F 17.5 °F 18.3 °F 66% 30.02 in 10.0 mi North 13.8 mph 23.0 mph N/A   Overcast
2:14 PM 28.2 °F 15.9 °F 18.0 °F 65% 30.02 in 10.0 mi North 17.3 mph 23.0 mph N/A   Overcast
2:34 PM 28.2 °F 18.9 °F 18.5 °F 67% 30.03 in 10.0 mi North 10.4 mph - N/A   Overcast
2:55 PM 27.7 °F 16.1 °F 18.3 °F 68% 30.03 in 10.0 mi North 15.0 mph 23.0 mph N/A   Overcast
3:14 PM 27.7 °F 15.6 °F 18.0 °F 67% 30.02 in 10.0 mi North 16.1 mph 23.0 mph N/A   Overcast
3:34 PM 27.5 °F 14.6 °F 17.6 °F 66% 30.02 in 10.0 mi NNE 18.4 mph 23.0 mph N/A   Overcast
3:54 PM 27.7 °F 17.1 °F 17.4 °F 65% 30.02 in 10.0 mi North 12.7 mph 21.9 mph N/A   Overcast
4:14 PM 27.1 °F 14.9 °F 17.6 °F 67% 30.03 in 10.0 mi North 16.1 mph 23.0 mph N/A   Overcast
4:34 PM 27.0 °F 13.9 °F 17.6 °F 68% 30.03 in 10.0 mi NNE 18.4 mph 23.0 mph N/A   Overcast
4:54 PM 26.4 °F 14.0 °F 17.4 °F 69% 30.03 in 10.0 mi North 16.1 mph 25.3 mph N/A   Overcast
5:14 PM 26.2 °F 13.4 °F 16.5 °F 67% 30.03 in 10.0 mi North 17.3 mph 20.7 mph N/A   Overcast
5:34 PM 25.7 °F 14.6 °F 16.7 °F 69% 30.03 in 10.0 mi North 12.7 mph 21.9 mph N/A   Overcast
5:54 PM 25.3 °F 13.6 °F 16.7 °F 70% 30.02 in 10.0 mi NNE 13.8 mph 25.3 mph N/A   Overcast
6:14 PM 25.2 °F 12.0 °F 16.5 °F 70% 30.02 in 10.0 mi NNE 17.3 mph 24.2 mph N/A   Overcast
6:34 PM 24.8 °F 13.4 °F 15.6 °F 68% 30.02 in 10.0 mi North 12.7 mph 19.6 mph N/A   Overcast
6:54 PM 24.6 °F 10.9 °F 15.4 °F 68% 30.02 in 10.0 mi North 18.4 mph 23.0 mph N/A   Overcast
7:15 PM 24.6 °F 15.1 °F 15.3 °F 68% 30.02 in 10.0 mi North 9.2 mph 24.2 mph N/A   Overcast
7:34 PM 23.9 °F 11.7 °F 14.7 °F 68% 30.02 in 10.0 mi North 13.8 mph 19.6 mph N/A   Overcast
7:54 PM 23.9 °F 15.0 °F 14.7 °F 68% 30.03 in 10.0 mi North 8.1 mph 17.3 mph N/A   Overcast
8:14 PM 23.7 °F 12.1 °F 14.5 °F 68% 30.03 in 10.0 mi North 12.7 mph 17.3 mph N/A   Overcast
8:34 PM 23.5 °F 14.5 °F 14.5 °F 69% 30.03 in 10.0 mi North 8.1 mph - N/A   Overcast
8:54 PM 23.2 °F 14.1 °F 14.4 °F 69% 30.03 in 10.0 mi North 8.1 mph - N/A   Overcast
9:14 PM 22.8 °F 14.5 °F 14.0 °F 69% 30.03 in 10.0 mi North 6.9 mph - N/A   Mostly Cloudy
9:35 PM 22.3 °F 13.9 °F 14.4 °F 72% 30.04 in 10.0 mi North 6.9 mph - N/A   Scattered Clouds
9:54 PM 22.1 °F 13.7 °F 14.4 °F 72% 30.04 in 10.0 mi North 6.9 mph - N/A   Mostly Cloudy
10:14 PM 22.1 °F 14.7 °F 14.4 °F 72% 30.04 in 10.0 mi North 5.8 mph - N/A   Scattered Clouds
10:34 PM 21.9 °F 11.0 °F 14.5 °F 73% 30.04 in 10.0 mi NNW 10.4 mph - N/A   Scattered Clouds
10:54 PM 21.9 °F 12.5 °F 14.9 °F 74% 30.04 in 10.0 mi NNW 8.1 mph - N/A   Mostly Cloudy
11:14 PM 21.7 °F 10.8 °F 15.4 °F 77% 30.04 in 10.0 mi NW 10.4 mph - N/A   Overcast
11:34 PM 21.7 °F 10.8 °F 15.4 °F 77% 30.04 in 10.0 mi NW 10.4 mph - N/A   Overcast
11:54 PM 21.7 °F 10.8 °F 15.6 °F 77% 30.04 in 10.0 mi NW 10.4 mph - N/A   Overcast